User: anonymous   Login
Location: Unspecified
(0.0000°N, 0.0000°E)
Time: 15:31:46
(UTC+00:00)
Language:

CICERO 7 - Orbit

View from above orbital plane
View from above orbital plane
View from above satellite
View from above satellite

Ground track
Ground track

The orbit data is extracted from the following two-line orbital elements,

1 43143U 18004AJ  21333.69384881  .00006688  00000-0  24153-3 0  9993
2 43143  97.3958  48.5398 0006166   2.6431 357.4840 15.28799127216012
Epoch (UTC): 29 November 2021 16:39:08
Eccentricity: 0.0006166
inclination: 97.3958°
perigee height: 475 km
apogee height: 483 km
right ascension of ascending node: 48.5398°
argument of perigee: 2.6431°
revolutions per day: 15.28799127
mean anomaly at epoch: 357.4840°
orbit number at epoch: 21601

The dashed part of the orbit path shows where the satellite is in the earth's shadow,  

DLR